Location: St Paul
(33.9360°N, 83.4200°W)
Time: 16:25:50
(UTC-04:00)

Cosmos 1680 Rocket - Pass Details

Date: 06 October 2017
Orbit: 761 x 781 km, 74.1° (Epoch: 17 October)

Event Time Altitude Azimuth Distance (km) Brightness Sun altitude
Rises 19:42:33 0° 172° (S) 3,247 6.7 -7.4°
Reaches altitude 10° 19:45:08 10° 162° (SSE) 2,322 5.8 -7.9°
Maximum altitude 19:49:47 32° 100° (E) 1,300 4.2 -8.9°
Drops below altitude 10° 19:54:27 10° 38° (NE) 2,327 5.6 -9.9°
Sets 19:57:02 0° 29° (NNE) 3,255 6.5 -10.4°
